Temp
-3 -4 -4 -4 -4 -4 -3 -2 -3 -2 -1 -1 -1 -2 -2 -2 -2 -2 -2 -1 -1 -0 0 1 1 1 1 1 1 2 3 5 6 7 7 8 7 9
-2 -2 -3 -3 -3 -3 -4 -4 -4 -3 -3 -2 -2 -3 -3 -3 -2 -3 -3 -3 -2 -1 -1 -0 0 0 0 0 1 1 2 2 4 6 6 7 8 8
-2 -3 -3 -3 -3 -4 -4 -4 -4 -4 -4 -3 -3 -4 -4 -4 -3 -3 -3 -3 -3 -2 -2 -1 -1 -1 -1 -0 0 0 1 2 2 3 5 6 8 8
-3 -3 -3 -4 -4 -4 -5 -5 -5 -5 -5 -5 -4 -4 -5 -5 -4 -4 -4 -4 -4 -4 -3 -2 -2 -1 -1 -1 -1 0 -0 1 1 2 3 5 5 7
-3 -4 -4 -5 -6 -7 -7 -7 -6 -6 -6 -6 -5 -5 -5 -6 -5 -5 -5 -5 -5 -4 -3 -3 -3 -2 -1 -2 -1 -1 -0 0 1 1 2 2 2 6
-4 -5 -6 -6 -7 -8 -8 -8 -8 -7 -7 -7 -7 -6 -6 -6 -6 -6 -6 -6 -6 -5 -5 -4 -4 -3 -2 -2 -2 -1 -1 -0 0 1 2 2 2 2
-6 -6 -7 -7 -7 -7 -8 -8 -8 -8 -8 -8 -8 -7 -7 -7 -8 -7 -6 -6 -6 -7 -7 -6 -5 -5 -3 -2 -2 -2 -1 -0 0 1 1 2 3 2
-8 -9 -8 -7 -8 -8 -8 -8 -9 -9 -9 -8 -8 -8 -7 -7 -8 -7 -7 -7 -7 -7 -7 -7 -7 -6 -5 -4 -2 -2 -1 -1 0 0 1 2 2 3
-9 -9 -10 -10 -10 -10 -10 -9 -9 -9 -10 -10 -10 -9 -8 -8 -8 -9 -8 -8 -7 -7 -8 -8 -7 -7 -7 -6 -4 -3 -2 -1 -1 -0 -0 1 1 2
-10 -10 -10 -10 -10 -9 -9 -10 -10 -10 -9 -9 -9 -9 -9 -9 -9 -9 -9 -8 -8 -8 -8 -8 -8 -8 -7 -7 -6 -5 -4 -3 -2 -1 -1 -0 1 1
-10 -10 -10 -10 -10 -9 -10 -9 -10 -9 -9 -9 -9 -9 -9 -9 -9 -9 -9 -9 -8 -8 -8 -8 -8 -8 -8 -7 -6 -5 -5 -4 -3 -2 -1 -1 -0 0
-11 -10 -10 -9 -9 -10 -10 -10 -10 -10 -10 -10 -9 -9 -9 -8 -9 -9 -9 -9 -8 -8 -8 -8 -8 -7 -7 -7 -6 -5 -5 -4 -3 -3 -2 -2 -1 -0
-11 -10 -10 -10 -10 -10 -10 -11 -11 -11 -11 -10 -10 -9 -9 -8 -8 -9 -9 -9 -8 -8 -7 -8 -7 -7 -7 -7 -7 -6 -6 -5 -4 -4 -3 -3 -2 -2
-11 -10 -10 -10 -10 -10 -10 -10 -10 -9 -9 -9 -9 -9 -9 -9 -8 -8 -9 -9 -9 -8 -8 -8 -8 -8 -7 -7 -6 -7 -6 -6 -5 -4 -4 -4 -3 -2
-10 -10 -10 -10 -11 -11 -10 -10 -9 -9 -9 -9 -9 -8 -8 -8 -8 -8 -8 -8 -8 -8 -8 -8 -8 -8 -8 -8 -7 -7 -7 -6 -6 -5 -5 -5 -3 -3
-11 -11 -11 -11 -11 -11 -11 -10 -9 -9 -9 -9 -8 -8 -8 -8 -8 -8 -8 -8 -8 -8 -8 -8 -8 -8 -8 -8 -8 -7 -7 -7 -7 -6 -6 -5 -4 -4
-11 -11 -11 -11 -11 -12 -13 -11 -10 -9 -9 -9 -8 -8 -8 -8 -8 -8 -9 -8 -8 -8 -8 -8 -8 -8 -8 -8 -7 -8 -7 -7 -8 -7 -6 -6 -5 -4
-12 -12 -12 -12 -12 -13 -13 -12 -12 -10 -10 -9 -8 -8 -8 -8 -8 -8 -8 -9 -8 -8 -8 -8 -8 -8 -8 -8 -8 -8 -7 -7 -7 -7 -7 -6 -6 -5
-12 -12 -12 -12 -12 -13 -12 -12 -12 -11 -11 -10 -9 -9 -8 -8 -8 -8 -8 -8 -8 -8 -8 -8 -8 -8 -7 -7 -7 -7 -8 -8 -8 -7 -7 -7 -6 -6
-13 -13 -13 -12 -13 -13 -12 -12 -12 -11 -11 -11 -10 -10 -9 -8 -8 -8 -8 -8 -8 -8 -8 -8 -8 -8 -8 -7 -8 -8 -8 -8 -8 -8 -7 -7 -6 -6
-13 -13 -13 -13 -13 -13 -13 -13 -12 -12 -12 -11 -11 -11 -10 -9 -9 -9 -9 -8 -8 -9 -9 -9 -8 -8 -8 -8 -9 -9 -9 -9 -9 -9 -8 -8 -8 -7
-14 -14 -13 -13 -13 -13 -13 -13 -12 -12 -12 -12 -12 -12 -11 -10 -10 -10 -9 -9 -9 -9 -9 -9 -9 -9 -9 -9 -10 -9 -10 -10 -9 -9 -9 -9 -9 -9
-15 -14 -14 -13 -13 -13 -13 -13 -13 -13 -12 -12 -12 -12 -12 -11 -11 -11 -10 -10 -10 -10 -10 -10 -10 -9 -9 -9 -10 -10 -10 -10 -10 -10 -10 -10 -9 -9
Height
1455 1456 1456 1455 1456 1458 1458 1452 1453 1452 1450 1450 1449 1449 1447 1448 1447 1448 1449 1449 1449 1450 1451 1451 1452 1452 1451 1450 1450 1449 1449 1448 1448 1450 1452 1451 1453 1454
1457 1456 1455 1454 1453 1451 1453 1445 1446 1448 1444 1446 1444 1442 1441 1441 1441 1440 1441 1440 1441 1442 1442 1442 1443 1444 1444 1443 1443 1442 1441 1440 1440 1440 1442 1442 1443 1447
1455 1453 1452 1450 1448 1447 1442 1440 1441 1441 1439 1436 1437 1437 1436 1436 1434 1433 1432 1430 1430 1431 1432 1434 1435 1435 1436 1436 1436 1435 1434 1434 1433 1433 1431 1433 1436 1437
1450 1448 1445 1442 1440 1437 1435 1434 1433 1433 1432 1430 1429 1429 1428 1427 1426 1425 1425 1424 1423 1422 1422 1423 1423 1425 1426 1427 1428 1428 1427 1427 1428 1428 1426 1427 1428 1432
1443 1440 1437 1434 1432 1430 1429 1427 1426 1425 1424 1422 1420 1420 1419 1418 1416 1415 1415 1414 1412 1411 1411 1412 1412 1413 1415 1416 1420 1420 1421 1421 1420 1422 1423 1423 1421 1424
1435 1432 1429 1426 1424 1422 1420 1418 1417 1415 1414 1412 1410 1408 1408 1407 1406 1405 1403 1403 1401 1401 1400 1400 1401 1401 1403 1406 1408 1411 1413 1414 1414 1415 1415 1417 1416 1419
1427 1424 1420 1418 1415 1413 1410 1409 1408 1406 1405 1403 1401 1399 1398 1397 1396 1396 1394 1393 1391 1391 1389 1389 1390 1390 1391 1393 1396 1399 1403 1406 1407 1407 1407 1408 1410 1411
1418 1414 1411 1408 1405 1403 1401 1399 1398 1396 1395 1393 1391 1390 1389 1389 1388 1387 1386 1385 1382 1384 1381 1379 1380 1379 1381 1382 1385 1389 1392 1395 1399 1401 1402 1403 1405 1405
1409 1406 1403 1400 1397 1395 1392 1390 1387 1386 1384 1383 1381 1380 1379 1379 1379 1378 1378 1377 1376 1377 1376 1373 1374 1373 1373 1374 1374 1377 1381 1384 1388 1391 1394 1396 1397 1396
1402 1399 1396 1392 1390 1387 1385 1382 1380 1378 1376 1374 1371 1370 1370 1370 1369 1369 1369 1369 1369 1369 1369 1365 1368 1365 1366 1366 1367 1369 1371 1375 1378 1381 1385 1388 1390 1391
1395 1392 1390 1386 1383 1381 1378 1374 1371 1368 1366 1364 1362 1361 1360 1359 1360 1360 1359 1360 1359 1360 1362 1360 1361 1359 1359 1358 1359 1361 1364 1367 1370 1373 1376 1380 1383 1385
1389 1386 1383 1380 1377 1375 1371 1367 1362 1359 1357 1355 1354 1353 1351 1349 1349 1350 1351 1351 1352 1353 1354 1355 1355 1356 1353 1351 1351 1353 1355 1358 1363 1366 1369 1372 1375 1378
1384 1380 1377 1373 1370 1367 1363 1358 1355 1351 1348 1347 1345 1344 1342 1341 1340 1340 1341 1342 1344 1345 1347 1348 1350 1350 1350 1349 1348 1349 1350 1351 1355 1360 1363 1365 1368 1371
1379 1375 1372 1368 1364 1359 1355 1352 1348 1345 1342 1340 1338 1337 1336 1334 1333 1332 1333 1334 1335 1337 1340 1341 1343 1345 1345 1346 1346 1346 1347 1347 1349 1353 1356 1359 1362 1364
1375 1371 1367 1363 1358 1354 1351 1348 1345 1341 1339 1337 1335 1333 1331 1329 1326 1325 1326 1327 1328 1329 1331 1334 1336 1339 1340 1341 1342 1343 1344 1344 1345 1347 1350 1353 1355 1358
1370 1367 1363 1359 1355 1351 1347 1345 1343 1340 1337 1334 1332 1330 1328 1325 1322 1321 1321 1322 1323 1324 1325 1327 1330 1332 1335 1336 1338 1339 1340 1341 1340 1343 1345 1347 1349 1351
1367 1365 1361 1357 1354 1350 1347 1343 1341 1338 1335 1332 1330 1327 1325 1322 1320 1319 1318 1319 1320 1321 1321 1323 1325 1327 1329 1331 1332 1333 1335 1336 1336 1338 1339 1341 1342 1344
1366 1363 1360 1357 1354 1351 1346 1342 1340 1337 1334 1332 1329 1327 1324 1321 1319 1318 1317 1317 1318 1319 1319 1320 1322 1324 1325 1326 1327 1328 1329 1331 1332 1332 1333 1335 1337 1339
1366 1363 1360 1358 1355 1352 1348 1344 1340 1337 1334 1332 1329 1327 1325 1322 1320 1318 1317 1317 1317 1317 1318 1318 1319 1320 1321 1322 1322 1323 1323 1325 1326 1327 1328 1329 1331 1332
1366 1364 1362 1359 1356 1353 1349 1346 1342 1339 1335 1332 1329 1327 1325 1323 1321 1319 1317 1317 1316 1315 1315 1315 1316 1317 1318 1319 1319 1318 1318 1319 1320 1322 1323 1325 1326 1327
1367 1365 1363 1360 1357 1354 1351 1348 1344 1341 1337 1333 1330 1327 1325 1323 1322 1320 1319 1318 1317 1317 1316 1315 1315 1316 1316 1316 1316 1316 1315 1315 1317 1319 1320 1322 1323 1324
1368 1366 1363 1361 1358 1355 1352 1349 1346 1342 1338 1335 1332 1329 1327 1325 1324 1322 1320 1319 1318 1317 1316 1316 1315 1315 1316 1316 1316 1315 1315 1315 1316 1317 1318 1320 1322 1324
1369 1367 1364 1362 1359 1357 1354 1351 1348 1344 1341 1338 1334 1331 1329 1327 1325 1324 1322 1320 1319 1318 1317 1317 1316 1316 1316 1315 1316 1316 1316 1316 1316 1317 1318 1319 1320 1320
Wind_Speed
18 16 14 13 11 14 17 16 15 22 26 23 25 19 20 19 18 18 18 21 25 27 27 26 21 14 18 17 15 20 24 26 36 35 31 34 40 48
15 15 16 17 19 19 18 15 15 22 29 24 24 23 22 23 23 23 23 26 29 29 29 27 25 24 17 19 19 18 20 24 31 41 40 34 21 28
17 18 20 23 22 20 20 19 21 21 26 28 24 24 26 25 24 25 25 26 25 28 30 30 27 26 29 19 19 21 21 18 26 33 41 34 46 29
22 25 27 27 25 24 24 24 21 21 24 28 27 26 26 25 24 24 24 25 25 27 32 32 32 30 27 33 19 19 22 22 18 24 28 29 28 38
30 29 28 26 24 21 22 23 24 25 26 28 31 29 28 27 29 29 29 30 33 35 37 36 35 35 35 28 34 22 22 24 23 19 21 22 19 36
29 29 29 29 27 25 24 24 24 24 25 26 28 29 27 27 29 29 30 29 30 30 31 34 35 36 37 36 32 37 27 25 26 26 26 25 20 23
29 30 30 31 31 29 26 24 24 25 25 25 26 26 26 24 24 24 27 26 27 25 26 27 28 29 36 38 37 36 40 32 27 27 26 29 30 22
27 27 28 28 26 25 23 22 23 23 25 25 25 27 26 26 24 25 25 24 26 20 23 24 24 27 29 31 36 37 38 42 35 29 29 29 31 28
26 26 24 22 22 19 20 21 23 24 25 27 29 30 30 27 24 25 24 25 25 21 20 22 21 22 20 20 28 32 36 37 37 34 32 31 31 31
25 23 21 20 18 17 20 21 22 23 25 26 27 27 26 25 27 29 28 28 26 24 22 25 20 24 20 21 25 29 29 31 34 34 32 30 30 31
21 18 18 20 19 19 20 24 26 25 25 25 25 26 26 27 26 25 28 28 28 25 22 24 20 23 21 25 26 29 33 29 28 29 30 30 30 32
20 19 20 18 19 19 23 27 26 25 24 21 23 25 24 24 25 29 30 27 24 22 21 22 18 16 14 14 17 21 27 35 32 26 25 27 26 29
21 21 18 18 22 25 25 20 20 20 20 20 20 20 20 21 22 21 26 30 28 26 21 16 15 15 15 14 9 8 10 24 34 29 22 22 23 25
19 17 19 23 24 23 16 15 17 17 15 14 14 14 16 18 20 20 22 25 28 29 25 19 21 19 17 15 14 12 12 11 22 31 22 22 22 19
14 17 18 19 18 15 11 12 13 11 11 11 12 12 12 15 16 17 17 17 18 19 23 25 29 22 19 18 15 12 11 12 14 24 24 23 23 21
16 15 14 13 13 12 9 8 9 10 9 9 9 8 11 12 9 9 12 14 15 18 18 19 22 24 25 21 18 18 15 11 11 19 23 24 25 26
11 11 11 13 14 15 12 9 9 11 11 9 9 10 10 10 7 5 8 10 12 11 13 16 16 18 19 19 19 18 17 17 16 18 22 24 25 26
8 9 12 15 16 16 17 15 12 11 12 11 10 10 11 11 7 4 3 6 8 9 10 11 11 14 15 18 21 21 18 16 15 17 19 22 20 24
10 12 13 14 15 16 18 19 17 15 13 11 11 10 9 10 9 3 3 3 4 5 6 8 11 13 14 14 13 13 17 19 17 19 20 20 19 19
13 14 15 15 16 17 17 17 17 17 15 13 11 10 10 8 7 8 6 3 0 2 2 4 4 7 9 8 7 11 13 14 15 15 16 18 19 18
13 14 14 15 15 16 16 16 16 16 16 15 13 12 10 9 7 5 4 3 4 3 3 3 4 5 6 6 6 7 7 9 12 13 13 12 10 10
12 13 14 14 15 15 16 17 16 16 17 17 16 14 12 10 9 8 6 5 3 3 3 3 3 4 4 5 5 6 5 4 6 9 9 10 6 3
14 13 13 13 14 15 15 16 17 17 16 16 18 18 14 11 9 8 7 6 5 4 3 2 0 1 3 6 7 6 6 6 6 5 6 7 5 7
Wind_Direction
348 343 338 336 311 291 277 278 269 282 283 281 282 282 285 281 278 272 269 269 265 266 263 260 255 254 250 252 260 262 262 266 250 238 241 240 253 238
324 318 314 312 306 299 283 283 266 266 275 275 274 277 277 278 274 272 268 268 265 265 267 265 262 254 256 247 260 261 256 260 263 251 247 249 266 254
306 299 297 298 291 284 285 279 274 270 270 276 271 270 269 269 268 268 269 271 271 268 264 262 258 254 247 250 255 259 259 259 261 264 252 253 249 263
300 299 298 295 289 287 284 281 276 273 271 272 271 267 266 267 265 263 262 263 264 264 263 262 257 250 252 246 254 254 251 257 259 264 258 243 251 235
302 299 297 294 291 288 284 279 276 274 270 269 270 268 266 265 266 264 264 263 265 265 266 263 260 256 249 248 245 248 245 251 251 254 257 244 250 238
299 296 294 293 291 289 285 280 277 273 271 268 268 269 266 264 263 265 264 262 265 266 266 261 259 259 253 247 243 239 247 248 251 249 252 259 245 243
298 295 293 294 292 289 282 278 275 272 270 267 267 268 266 262 257 262 265 268 265 265 265 260 259 256 252 249 245 240 237 248 249 249 247 250 252 247
299 299 301 301 298 294 286 278 270 267 266 265 265 264 264 262 260 259 262 265 270 268 263 267 259 258 256 251 246 241 239 235 243 243 239 248 254 243
302 305 300 298 298 290 287 287 282 275 266 263 263 263 266 263 262 259 256 258 262 262 266 264 260 262 255 251 245 240 238 238 239 235 238 242 250 252
309 302 298 297 296 298 297 292 287 278 271 269 264 266 265 266 261 259 257 259 261 260 257 264 266 262 260 252 242 230 229 231 233 235 236 238 242 246
308 301 300 298 302 302 299 300 293 284 282 281 274 274 273 275 266 260 253 250 255 258 259 262 264 269 262 263 254 243 234 228 226 226 227 228 233 240
309 306 309 308 306 306 300 299 291 285 283 277 274 278 275 272 263 257 254 247 247 256 256 249 256 260 271 277 264 251 241 231 226 222 223 226 230 236
310 309 315 309 302 307 307 297 293 295 289 280 276 274 272 270 268 254 247 246 244 246 250 240 252 250 246 261 271 255 264 233 227 224 233 226 229 234
313 320 317 307 307 314 311 306 309 306 303 295 288 283 276 274 273 261 247 243 245 246 248 249 247 249 247 254 255 267 261 251 220 223 226 217 220 230
321 311 314 311 322 326 312 316 323 325 314 308 301 298 306 307 281 265 261 260 255 251 247 245 245 244 246 252 256 256 257 254 225 218 220 224 230 238
327 319 329 343 355 351 340 321 340 350 339 326 326 324 319 326 309 262 251 257 255 258 250 238 240 244 250 253 250 256 255 239 251 241 240 245 245 248
330 331 358 12 16 14 6 5 5 7 9 2 354 343 332 318 316 298 245 239 240 243 248 245 239 239 244 249 254 254 253 251 250 251 249 251 253 253
348 12 19 22 21 13 14 19 14 16 15 15 12 12 10 7 338 310 317 232 242 243 244 246 239 236 250 256 250 253 254 251 247 254 251 252 251 251
33 32 29 26 24 21 22 22 18 17 10 8 10 9 11 22 24 4 276 281 283 263 256 245 244 243 240 246 251 254 249 251 249 251 251 243 241 242
40 37 33 29 27 26 23 22 22 22 20 17 12 9 8 11 26 48 62 70 220 236 233 228 215 214 224 237 233 252 247 241 241 239 237 235 240 247
34 35 31 27 26 24 23 22 23 24 25 26 24 25 20 23 22 30 40 56 65 79 98 127 165 184 206 228 228 229 237 227 214 220 223 218 222 242
25 28 24 20 20 22 22 22 25 27 31 32 32 31 29 27 29 34 38 47 62 81 98 112 131 157 193 217 200 196 186 189 202 206 210 202 190 197
24 18 21 22 25 27 27 27 28 29 31 32 34 33 31 32 34 34 38 51 67 74 94 84 95 201 201 179 171 170 161 156 162 176 205 228 234 243